This is the latest recevied weather packets stored in our database for station/object KI5NXU. If no packets are shown the sender has not sent any weather packets the latest 10 day(s).
| Time | Temp. | Humidity | Pressure | Rain* | Wind** | Luminosity | Snow |
|---|---|---|---|---|---|---|---|
| 1788249256 | 25° C | 61% | 1015.6 hPa | 0 mm | - | 0 W/m² | - |
| 1788248956 | 25.56° C | 60% | 1015.3 hPa | 0 mm | - | 0 W/m² | - |
| 1788248650 | 25.56° C | 59% | 1015.6 hPa | 0 mm | - | 0 W/m² | - |
| 1788248346 | 25.56° C | 58% | 1015.5 hPa | 0 mm | - | 0 W/m² | - |
| 1788248042 | 25.56° C | 60% | 1015.6 hPa | 0 mm | - | 0 W/m² | - |
| 1788247737 | 26.11° C | 59% | 1015.6 hPa | 0 mm | - | 0 W/m² | - |
| 1788247437 | 26.11° C | 58% | 1015.5 hPa | 0 mm | - | 0 W/m² | - |
| 1788247132 | 26.11° C | 58% | 1015.5 hPa | 0 mm | - | 0 W/m² | - |
| 1788246831 | 26.67° C | 57% | 1015.4 hPa | 0 mm | - | 0 W/m² | - |
| 1788246530 | 26.67° C | 59% | 1015.2 hPa | 0 mm | - | 0 W/m² | - |
| 1788246226 | 26.11° C | 58% | 1015.4 hPa | 0 mm | - | 0 W/m² | - |
| 1788245924 | 26.67° C | 58% | 1015.3 hPa | 0 mm | - | 0 W/m² | - |
| 1788245620 | 26.67° C | 57% | 1015.3 hPa | 0 mm | - | 0 W/m² | - |
| 1788245316 | 26.67° C | 56% | 1015.6 hPa | 0 mm | - | 0 W/m² | - |
| 1788245012 | 26.11° C | 58% | 1015.7 hPa | 0 mm | - | 0 W/m² | - |
| 1788244709 | 26.67° C | 57% | 1015.4 hPa | 0 mm | - | 0 W/m² | - |
| 1788244405 | 27.22° C | 56% | 1015.4 hPa | 0 mm | - | 0 W/m² | - |
| 1788244101 | 27.78° C | 54% | 1015.5 hPa | 0 mm | - | 0 W/m² | - |
| 1788243797 | 27.78° C | 53% | 1015.2 hPa | 0 mm | - | 0 W/m² | - |
| 1788243493 | 27.78° C | 53% | 1015.2 hPa | 0 mm | - | 0 W/m² | - |
| 1788243192 | 27.78° C | 53% | 1015.3 hPa | 0 mm | - | 0 W/m² | - |
| 1788242888 | 27.78° C | 53% | 1015.4 hPa | 0 mm | - | 0 W/m² | - |
| 1788242584 | 27.78° C | 52% | 1015.3 hPa | 0 mm | - | 0 W/m² | - |
| 1788242278 | 27.78° C | 52% | 1015.2 hPa | 0 mm | - | 0 W/m² | - |
| 1788241975 | 27.78° C | 52% | 1015.3 hPa | 0 mm | - | 0 W/m² | - |
* Rain latest hour (hover to see other rain measurements)
** Current wind speed in m/s (hover to see current wind gust speed)